Theta_e
352 352 352 351 351 352 351 351 349 344 345 344 343 345 344 346 347 347 347 348 348 347 346 345 344 342 343 343 343 344 345 345 344 340 339 342 342 341 342 342 343 343 344 345 344 344 346 346 344 343 342 340 342 343 343 343 343 343 342 343 343 343 343 342 343 344 345 345 344 344 344 344 345 346 345 345 345 345 344 344 342 342 342 343 343 343 343 342 342 342 342 344 345 343 342 342 342
351 351 351 351 350 352 351 349 347 343 343 342 343 346 345 346 347 346 347 348 347 346 346 345 343 343 343 344 343 344 346 345 343 342 343 343 341 341 341 342 343 343 343 345 345 344 345 345 344 344 343 342 342 342 342 342 343 342 343 343 344 344 343 344 343 344 345 344 343 343 344 345 346 345 345 344 344 345 345 343 341 342 342 341 342 344 344 342 340 341 342 343 344 342 341 342 343
349 350 350 351 351 351 351 348 345 343 342 341 343 347 347 347 347 346 346 346 346 346 345 344 343 344 344 344 344 344 346 345 343 343 343 342 340 340 340 341 343 343 343 344 344 345 345 345 344 344 342 341 342 342 342 342 342 342 342 344 344 344 344 344 343 344 344 343 342 342 343 344 345 345 344 344 344 344 343 342 340 341 341 341 342 343 344 343 342 342 342 343 344 342 342 342 342
348 349 350 351 351 351 351 348 345 343 342 342 342 346 348 348 347 346 347 347 345 346 345 344 344 344 344 344 344 344 347 345 341 341 342 341 340 338 338 341 343 343 343 343 344 345 345 344 344 344 342 341 341 341 341 340 341 341 342 343 343 344 344 344 344 344 344 342 342 342 342 343 344 344 344 343 344 343 343 342 341 341 342 341 341 343 344 344 343 343 343 344 344 343 343 343 342
349 349 350 351 352 352 351 347 347 344 342 343 342 346 349 347 347 346 346 345 345 346 344 344 344 344 345 345 345 344 347 346 340 339 340 340 339 337 337 340 342 343 343 343 344 345 345 344 344 343 343 342 341 340 339 339 340 340 341 342 343 344 344 344 344 344 344 342 342 341 341 342 343 343 343 342 343 343 344 342 342 340 340 341 341 343 343 343 344 344 344 343 343 344 344 343 341
348 350 351 351 351 352 350 345 346 346 345 346 346 348 347 346 347 346 345 344 344 345 344 344 344 344 345 345 346 346 346 346 340 338 339 338 338 338 338 339 341 342 343 343 344 344 344 343 344 343 343 341 340 340 340 339 339 340 341 342 343 344 343 344 344 344 343 341 341 340 340 340 341 343 342 342 342 344 344 343 341 340 339 339 341 342 342 343 344 344 343 342 342 343 342 342 342
347 350 351 351 351 351 349 345 346 347 347 347 348 348 346 348 348 345 344 344 344 344 343 344 345 345 346 345 347 347 345 343 339 337 338 338 339 338 339 341 341 342 343 343 344 344 343 343 343 343 342 340 339 340 340 340 340 341 341 342 343 345 344 344 344 343 342 341 340 339 339 339 339 342 342 341 342 343 343 341 340 340 340 340 341 342 342 342 343 343 343 342 342 341 341 343 343
347 350 351 351 352 350 349 348 347 348 347 347 348 348 349 349 348 346 344 344 344 344 344 344 345 345 347 346 347 348 345 341 338 336 337 338 338 337 338 340 341 342 343 342 344 344 344 342 342 342 342 340 340 341 340 341 340 341 341 340 342 345 345 344 344 343 343 342 341 339 340 340 339 341 342 341 341 342 342 341 340 340 341 341 341 342 342 340 341 342 342 343 343 342 342 344 343
348 351 352 351 350 349 348 348 347 348 349 348 348 350 351 350 348 346 344 345 344 344 345 344 344 346 347 348 348 348 346 341 336 335 335 335 335 335 334 337 339 340 340 339 340 342 343 342 342 341 342 340 340 341 340 341 341 341 340 340 341 343 345 345 344 344 343 342 341 339 340 341 340 339 341 341 340 341 341 340 340 341 340 340 341 342 342 341 340 341 341 341 341 341 342 342 341
348 352 352 351 348 348 346 347 348 348 349 348 349 350 350 349 348 346 344 345 345 345 345 344 344 345 347 348 348 348 347 341 337 335 334 334 334 333 333 335 336 336 336 336 336 340 342 342 341 342 342 340 339 341 341 341 341 340 340 340 340 342 345 344 343 344 343 342 341 339 339 342 341 338 340 341 340 339 340 340 340 340 339 339 340 341 342 342 342 341 339 338 338 340 341 340 341
350 350 352 351 347 346 345 347 349 348 349 348 349 350 349 347 348 347 346 345 346 346 345 345 345 346 348 348 349 348 345 342 338 336 334 334 335 335 335 336 336 336 336 335 335 339 341 342 342 342 343 341 339 341 342 342 342 341 339 339 340 342 345 344 344 344 342 342 340 338 339 341 341 340 340 340 339 338 336 337 339 340 339 339 340 340 341 341 342 339 334 333 338 340 340 340 341
351 351 352 351 349 347 347 348 350 349 349 348 348 351 348 347 347 346 347 346 347 346 345 345 345 345 347 348 349 347 346 344 340 336 335 335 335 336 337 337 338 337 337 336 335 337 340 342 343 342 343 342 340 340 342 342 342 341 340 338 340 341 343 344 344 343 343 342 340 339 340 341 342 342 342 341 340 338 335 335 337 340 341 341 341 341 340 339 339 335 330 333 339 340 341 341 342
350 352 353 352 350 349 349 349 351 351 348 348 349 350 347 347 349 346 348 347 347 346 344 344 344 346 347 348 349 348 348 346 341 338 338 337 336 337 338 338 337 337 336 335 335 335 336 340 343 343 343 344 343 341 340 341 342 340 340 339 338 340 341 344 344 342 342 343 340 339 341 341 341 341 342 343 343 341 337 334 335 337 336 337 337 336 336 334 334 330 328 333 339 341 341 341 341
349 351 353 352 350 350 351 350 351 349 345 349 351 348 347 348 347 346 348 347 346 346 345 344 345 346 347 347 348 349 348 346 343 342 340 339 338 338 339 339 337 336 335 335 336 336 337 340 343 343 343 344 345 343 340 340 342 341 339 339 339 339 340 342 343 342 343 343 341 340 341 340 340 341 340 341 343 343 340 336 334 332 327 325 326 326 328 328 328 327 327 332 337 339 339 340 339
349 348 352 353 350 351 351 350 351 348 345 350 351 348 349 347 344 345 347 346 345 345 345 344 344 343 346 348 348 349 349 346 344 342 341 340 341 341 341 339 337 336 335 335 337 337 339 342 343 343 343 344 345 345 342 340 341 341 340 339 339 340 340 341 341 342 342 342 341 341 340 340 340 341 340 339 341 342 342 339 337 334 327 322 321 322 324 325 324 325 326 331 336 339 339 339 339
348 348 356 354 350 351 350 351 351 347 346 350 349 348 350 346 345 347 345 345 345 345 344 344 343 341 345 348 348 349 349 346 345 343 344 344 344 344 343 340 338 337 336 336 338 339 340 343 344 344 344 345 345 345 344 341 339 340 340 339 338 340 340 340 339 341 341 339 339 340 338 339 341 341 341 341 341 341 341 340 337 335 330 324 324 324 323 324 325 326 328 334 337 339 339 340 340
348 350 356 354 350 350 350 352 350 347 348 350 349 348 350 347 347 347 344 345 345 345 344 345 343 342 346 347 347 349 349 347 346 346 346 346 346 346 344 341 339 337 337 338 339 340 341 343 344 344 344 344 344 345 344 342 340 339 340 339 338 338 339 339 338 339 341 338 338 339 337 338 341 341 341 342 340 339 338 337 336 334 330 327 325 324 324 326 328 330 334 337 339 340 341 341 342
349 352 353 350 351 351 351 352 351 350 349 350 350 350 349 348 348 346 344 346 345 345 345 346 345 343 345 345 346 349 349 348 346 347 348 348 347 348 346 343 340 339 339 339 340 341 342 343 344 344 345 344 345 345 345 344 342 339 340 340 338 336 337 339 339 338 339 339 339 339 337 339 340 341 341 340 339 337 335 334 334 332 330 326 324 323 323 326 329 332 335 337 339 340 341 342 342
349 351 349 348 351 352 353 354 352 353 351 352 351 348 348 349 349 346 346 347 345 344 346 347 347 345 346 344 347 349 350 349 348 348 348 348 349 348 347 344 341 340 340 341 341 342 343 344 344 345 345 345 344 344 345 344 343 341 340 341 339 337 337 339 339 338 338 338 339 339 338 339 340 341 340 337 337 336 334 332 331 330 329 327 326 326 327 329 332 334 336 338 339 340 341 342 342
348 349 348 348 350 351 355 355 354 353 352 354 351 347 349 349 347 346 347 347 344 344 346 347 349 348 348 346 347 350 350 349 348 348 347 348 349 348 347 345 342 341 341 342 344 343 343 344 344 344 344 344 343 343 344 344 343 342 341 342 340 339 340 340 338 338 338 337 339 338 338 339 340 340 337 333 333 332 331 331 331 333 333 334 335 335 337 337 339 339 340 340 341 342 342 342 342
348 347 348 349 350 351 354 354 353 350 350 352 351 348 349 348 346 347 347 346 344 345 345 346 347 347 348 347 347 349 351 350 349 349 348 348 348 348 347 345 343 342 342 344 345 344 343 343 344 344 343 343 343 342 343 344 343 342 341 342 340 340 341 339 338 338 338 339 339 338 337 338 338 336 334 330 330 331 332 334 336 338 339 340 341 342 342 342 342 342 342 342 342 342 342 342 342
348 350 352 352 352 351 354 353 350 349 348 350 350 350 349 348 348 347 346 347 345 344 344 344 344 343 346 346 346 347 349 350 350 349 348 348 348 348 347 345 344 342 342 345 345 344 343 344 344 343 343 342 343 342 343 344 343 342 342 342 340 340 340 338 338 338 339 338 338 337 337 337 335 332 331 331 333 335 337 339 340 341 343 343 343 344 344 344 344 344 344 344 343 343 343 343 342
347 351 353 354 353 353 353 352 350 349 348 350 351 350 349 350 351 346 346 348 344 342 343 342 342 341 343 345 344 345 347 348 348 349 348 348 347 347 347 346 344 342 344 344 344 344 343 344 344 343 343 344 344 343 343 344 344 342 342 342 340 340 340 339 339 339 338 337 337 337 337 336 333 330 331 334 337 339 340 342 343 344 344 344 345 345 345 345 345 345 345 345 344 344 343 342 342
347 351 353 353 353 353 352 352 351 349 350 351 351 350 350 351 351 346 345 346 343 341 341 341 342 342 343 344 343 343 344 345 346 349 349 347 346 346 346 346 344 343 345 345 344 344 344 344 344 343 343 343 343 343 343 343 343 342 342 341 340 340 340 340 340 339 337 337 337 336 336 334 331 330 333 336 339 342 342 344 344 345 345 346 346 345 346 346 346 345 345 345 345 344 343 342 342
347 351 353 352 352 352 351 351 352 351 350 350 350 352 351 351 350 349 348 346 342 341 342 342 342 342 344 344 342 343 344 345 346 349 349 348 346 346 346 345 345 345 345 345 345 345 345 345 344 343 342 341 341 342 342 343 342 342 341 340 340 340 341 341 339 338 337 337 337 335 334 333 330 331 335 339 341 343 344 345 346 346 346 346 346 346 346 346 345 345 345 344 343 343 342 340 340
350 351 352 352 351 351 351 352 351 351 350 349 351 352 352 351 350 350 347 345 344 341 342 342 342 342 343 343 342 342 343 344 345 348 350 349 347 347 347 346 345 346 346 346 345 345 345 344 344 342 341 340 339 340 341 343 342 341 341 341 340 340 340 341 339 338 337 337 334 333 332 331 330 332 337 341 342 344 345 346 346 346 346 346 346 346 346 345 345 344 344 344 343 343 342 339 338
352 352 352 351 351 350 350 352 350 350 350 350 352 351 352 351 348 349 344 344 345 342 344 342 342 343 342 342 342 342 343 344 345 347 350 349 348 348 347 347 346 346 346 345 345 344 344 343 342 342 341 340 339 340 341 342 343 342 341 340 339 337 338 338 337 337 337 335 331 331 332 331 330 334 338 342 344 345 346 346 346 346 346 346 346 345 345 345 344 344 344 344 343 343 343 340 335
352 352 352 351 352 351 350 351 349 350 350 348 351 352 352 350 349 352 346 343 346 344 345 344 343 344 342 342 342 343 344 344 345 346 347 347 347 347 347 347 347 346 346 345 345 344 343 342 341 341 340 339 339 339 340 340 341 341 340 337 335 333 333 335 336 336 335 331 330 331 332 331 330 334 339 342 344 345 346 346 346 346 346 346 346 345 345 344 344 344 343 343 343 342 342 339 333
351 350 351 351 352 352 349 349 348 350 350 347 350 350 350 350 351 352 345 344 347 346 347 347 346 344 343 343 342 343 343 344 345 345 345 345 345 346 346 346 345 345 345 344 344 343 343 342 340 341 340 339 339 339 338 336 337 339 338 335 332 331 332 334 335 334 332 329 330 332 331 331 331 335 339 342 345 345 345 346 346 346 346 345 345 345 345 344 343 343 343 343 343 342 341 339 334
351 349 349 350 350 351 348 346 347 350 349 348 349 347 348 350 351 348 344 345 347 347 349 349 347 346 344 343 343 343 344 343 344 344 345 345 344 346 346 346 345 344 343 342 343 342 342 341 340 341 339 339 339 338 336 334 336 337 335 332 330 331 332 333 333 331 330 330 331 331 331 330 332 336 340 343 344 344 345 345 346 346 346 346 345 345 344 344 343 343 343 342 343 342 341 339 337
350 349 346 347 345 347 349 346 347 349 349 350 349 346 348 349 349 346 343 345 348 348 349 349 348 346 344 344 343 343 344 343 344 344 344 345 345 346 347 346 344 343 341 340 341 341 341 340 340 340 339 339 338 337 335 335 336 336 332 329 329 331 333 334 335 335 334 333 332 331 330 330 333 337 340 342 343 343 344 345 346 346 346 346 345 345 344 344 344 343 343 343 342 342 341 340 338
348 343 340 345 345 347 351 348 347 350 350 352 350 346 348 348 348 347 343 345 348 348 349 348 348 346 344 344 344 344 345 344 344 344 344 345 345 346 346 346 345 342 341 340 340 340 340 340 340 340 339 338 337 335 334 336 338 334 330 330 333 335 337 339 340 340 340 338 335 333 332 332 335 338 340 340 342 343 344 345 346 345 345 345 345 345 345 345 345 344 343 343 342 342 341 341 340
346 342 338 345 346 347 350 349 348 350 351 352 349 349 350 348 348 349 344 343 346 347 348 347 346 346 345 344 344 345 345 344 343 344 344 344 346 347 346 346 345 342 340 340 339 339 339 340 340 340 338 337 336 335 335 337 337 333 331 336 339 340 341 341 342 343 343 342 339 336 335 336 338 340 340 341 342 343 344 345 346 346 346 346 346 346 346 345 344 344 343 343 342 342 341 340 341
338 342 341 344 348 346 347 350 351 349 351 352 351 354 353 346 349 351 346 343 345 346 346 346 346 345 345 345 345 345 345 345 344 344 343 344 346 347 346 346 345 342 340 340 340 339 339 339 339 339 338 337 336 335 336 337 336 333 335 339 341 341 342 342 342 342 342 343 342 340 338 339 341 342 343 343 344 344 344 345 345 346 346 346 346 346 346 345 344 344 344 343 343 342 341 340 341
330 333 335 339 346 346 346 350 351 349 351 351 351 354 352 345 349 353 348 344 344 344 345 345 344 344 345 345 345 345 345 345 343 343 343 344 346 347 346 347 345 342 340 340 340 340 338 338 339 337 336 336 335 336 337 337 335 335 337 340 341 342 341 341 342 342 342 342 343 343 341 341 342 344 345 344 344 344 345 345 346 347 347 347 346 347 346 345 344 344 344 344 343 342 341 341 340
331 334 336 337 340 345 349 351 351 351 350 352 351 351 350 346 349 353 351 347 344 344 344 344 344 343 344 344 345 345 345 344 344 343 343 344 346 346 347 347 345 343 340 339 340 339 337 338 337 336 335 335 335 336 337 337 336 336 338 340 341 342 342 342 342 342 343 342 342 343 343 343 343 344 345 345 345 344 345 346 346 347 347 346 346 346 346 346 345 345 345 344 344 343 342 341 341
335 336 339 342 340 342 351 353 352 351 350 351 352 350 350 348 348 352 353 351 346 344 344 344 344 344 344 344 344 345 344 344 344 342 343 344 347 347 347 347 345 343 340 340 340 339 336 336 336 334 334 335 336 336 336 337 337 338 339 340 341 342 342 342 342 341 341 341 342 342 343 343 343 344 345 345 345 345 346 346 346 346 347 346 347 346 346 346 346 346 346 345 345 344 344 342 342
330 329 332 338 340 344 351 353 352 351 349 349 351 350 349 349 348 350 353 353 348 344 344 344 345 344 345 344 345 345 344 344 343 342 343 344 347 346 347 348 345 343 341 339 341 339 335 335 335 333 334 335 335 336 336 337 337 338 338 339 341 342 342 341 341 340 340 341 341 341 342 342 342 344 344 344 345 346 346 346 346 346 346 347 347 347 346 346 346 346 345 345 345 345 344 343 343
326 328 328 329 339 348 349 352 352 349 348 349 350 349 349 349 348 349 352 354 352 348 345 344 345 345 345 345 345 345 344 343 343 342 344 345 347 347 347 347 346 344 341 339 341 340 336 334 335 334 334 335 335 336 337 338 338 339 339 340 341 342 341 340 340 340 340 340 340 340 341 341 342 343 344 344 345 346 346 346 346 346 346 347 348 347 347 347 347 346 346 345 345 345 345 344 343
323 328 325 326 340 344 342 350 353 349 349 350 350 349 349 350 348 348 349 352 354 352 347 344 344 344 345 345 345 344 344 343 343 343 344 346 347 346 346 347 347 345 342 341 341 340 337 334 334 335 335 336 336 337 338 339 339 339 340 341 342 342 342 341 341 342 342 341 340 339 340 341 341 342 343 343 345 346 346 346 346 346 346 346 348 348 347 347 347 347 346 345 344 346 347 345 344
320 325 323 327 343 345 344 351 352 350 350 350 350 344 344 348 348 349 349 349 352 354 352 349 346 344 343 344 345 344 345 344 343 343 344 346 346 347 346 347 347 347 344 342 341 340 339 336 335 335 336 337 337 337 338 340 340 340 342 342 342 342 342 343 343 344 344 343 341 339 339 340 341 342 343 343 344 345 345 345 345 345 345 345 347 348 347 347 347 347 348 346 345 346 347 346 346
319 324 325 328 343 348 350 353 349 346 346 349 349 338 334 341 346 347 348 348 351 352 354 353 351 348 344 344 345 344 345 345 344 344 345 346 346 347 346 346 347 347 346 344 342 341 340 338 337 336 337 338 338 339 340 340 341 341 342 342 342 343 343 343 344 344 343 343 343 341 340 340 340 342 344 344 345 346 345 346 345 344 343 343 345 346 346 346 346 347 346 346 346 345 345 346 347
318 323 329 333 344 349 351 352 345 339 340 347 349 338 332 336 342 346 346 346 350 351 353 353 354 352 348 346 346 346 345 345 345 345 346 346 347 347 346 346 347 346 347 346 344 342 341 340 338 338 338 339 340 342 342 341 341 342 343 342 342 342 343 343 343 343 343 344 345 344 342 340 340 341 342 344 345 346 346 346 346 344 343 342 343 343 344 345 346 345 343 342 344 345 344 344 346
319 327 334 339 347 349 350 349 342 341 345 346 347 342 336 333 339 344 344 345 348 349 350 353 354 354 351 348 345 346 346 345 346 345 346 347 347 346 346 346 346 347 347 347 346 344 342 341 339 339 339 340 341 342 342 341 341 342 342 342 342 342 343 342 343 343 342 344 346 345 344 341 340 341 341 341 344 345 345 347 346 345 343 342 342 342 343 344 344 343 341 341 342 344 345 344 344
329 336 341 343 347 348 348 344 341 344 342 339 344 345 335 331 337 344 345 346 348 349 349 351 354 354 353 350 347 346 346 345 346 346 346 346 347 347 346 346 347 346 347 347 346 345 344 343 341 340 340 339 340 342 342 342 342 343 343 342 342 343 343 343 343 343 343 344 345 346 345 343 341 341 340 340 341 341 343 345 346 344 343 342 342 342 342 342 342 342 341 342 344 345 345 346 345
337 341 343 343 344 343 343 340 339 340 334 332 342 345 334 327 333 342 345 347 348 348 348 349 352 354 353 351 349 349 347 346 346 346 346 346 346 347 347 347 346 346 346 347 347 346 345 344 344 343 341 341 341 341 343 342 342 342 343 342 342 342 343 343 343 343 343 344 345 346 346 344 342 342 341 340 339 339 340 342 343 341 342 342 342 342 341 341 341 341 341 342 344 346 347 347 347
340 342 341 341 342 339 338 339 338 335 332 332 338 344 337 326 327 340 345 346 346 345 346 347 349 351 353 353 352 350 348 346 346 347 346 347 346 347 347 347 347 346 346 347 347 347 346 346 345 344 343 342 342 342 342 342 342 342 342 342 342 343 343 344 344 344 344 344 345 346 345 344 343 342 341 340 340 340 340 341 341 341 342 343 342 342 342 342 342 341 341 342 345 347 348 348 347
337 341 339 335 337 338 336 336 335 332 330 333 337 343 340 327 327 339 343 343 343 344 345 345 347 348 350 352 353 352 350 348 347 346 346 347 347 347 347 347 347 346 347 347 347 347 347 347 347 345 343 343 342 342 341 340 341 342 342 342 342 343 343 344 344 344 344 345 345 346 346 343 342 342 341 341 341 340 340 340 341 342 343 342 342 343 343 342 342 341 341 342 345 347 348 347 346
335 338 333 329 331 333 332 332 333 330 329 332 338 342 338 330 333 339 340 341 342 344 346 346 346 347 347 348 350 352 352 350 347 347 346 347 347 347 347 347 346 347 346 346 347 347 347 347 347 346 344 342 342 342 341 341 340 340 340 341 342 342 343 344 345 345 345 346 346 346 346 343 342 341 340 340 340 341 341 342 342 343 343 342 342 342 342 342 342 342 342 342 344 346 347 347 348
334 332 326 324 326 325 327 330 329 327 329 335 340 341 333 330 337 341 339 341 344 346 347 347 348 348 348 347 348 350 352 351 349 347 347 347 347 347 347 347 346 347 346 346 347 347 347 347 348 347 345 343 341 340 341 341 341 340 339 339 340 342 343 344 345 346 346 347 346 346 347 345 343 342 341 340 340 342 342 342 343 343 342 342 342 341 341 341 341 342 343 343 342 344 346 348 349
330 326 323 323 323 320 320 325 324 323 330 337 339 337 329 328 336 341 341 343 345 347 348 349 349 349 348 348 348 348 351 352 350 349 348 347 347 347 347 347 347 347 346 346 347 347 347 348 347 347 347 345 343 341 340 340 341 341 339 338 339 341 342 343 345 347 347 346 347 347 347 347 346 344 344 343 343 342 342 342 343 342 342 341 341 341 341 341 341 342 343 343 343 344 346 348 348
323 321 320 320 321 322 321 322 325 325 328 333 335 333 332 333 337 340 342 344 347 347 348 350 351 351 350 349 349 348 349 351 351 350 349 348 347 347 347 347 347 347 347 346 346 347 347 347 347 347 347 346 345 344 341 340 340 341 339 338 337 340 341 342 344 347 346 346 347 347 348 348 347 346 346 346 345 343 342 343 343 342 341 340 340 341 340 341 341 342 342 344 344 346 347 347 346
321 320 319 321 323 327 326 323 326 327 324 327 333 332 332 335 334 338 343 344 346 348 347 350 351 351 352 351 352 350 349 351 351 351 350 349 349 348 347 347 347 347 347 347 347 346 347 347 347 347 347 347 346 346 343 341 339 339 339 338 336 337 339 341 343 346 347 346 346 347 347 348 346 346 346 347 346 345 343 344 344 342 342 341 341 341 341 342 342 343 343 344 345 346 346 344 345
323 320 322 325 324 326 328 324 326 325 321 324 329 329 330 330 330 339 346 344 345 346 346 349 350 351 351 352 351 351 350 351 351 351 350 350 349 348 347 347 347 347 347 347 347 347 347 347 347 347 347 347 346 346 345 344 341 339 338 339 337 334 336 339 342 345 346 346 346 346 347 346 346 346 346 347 346 346 346 345 344 344 343 345 345 344 344 346 346 346 345 344 344 344 343 342 343
325 325 326 325 323 324 326 324 324 323 322 324 327 327 329 329 330 338 345 345 345 346 346 347 348 349 350 351 350 350 350 351 351 351 350 350 349 348 348 347 347 347 347 347 347 347 347 348 347 347 346 347 347 346 346 346 344 342 339 338 336 334 334 337 341 344 345 345 345 345 346 346 345 346 346 346 346 346 346 346 345 345 346 347 348 346 346 348 348 346 345 345 343 343 342 342 342
326 327 328 327 327 327 326 325 323 321 324 325 325 325 326 329 334 339 343 347 346 346 347 347 347 348 349 349 349 350 350 351 351 351 350 350 350 349 348 348 347 347 346 347 347 346 347 348 348 348 347 347 347 347 347 346 345 344 341 337 335 333 332 335 338 341 343 343 344 344 345 345 345 345 346 346 346 345 344 345 345 346 347 349 349 348 346 347 347 347 346 347 346 345 345 345 345
326 325 325 326 328 327 326 328 326 323 325 326 325 323 323 329 338 341 344 346 346 347 348 348 349 349 348 348 348 348 349 350 350 351 351 350 350 349 349 348 348 347 346 347 347 347 347 347 347 348 347 348 348 347 347 346 346 345 343 339 335 332 331 333 334 337 340 341 342 342 343 343 343 344 345 345 345 345 344 344 345 346 346 346 346 346 346 347 348 348 348 348 348 349 349 349 349
327 326 326 327 328 326 323 326 329 328 325 326 326 323 323 331 337 340 345 345 346 349 348 348 349 349 348 348 348 347 347 348 349 350 350 350 350 349 349 348 347 347 347 347 347 346 347 347 347 347 348 347 347 347 347 347 346 346 345 342 338 334 332 332 332 334 336 338 339 339 339 340 341 343 343 344 345 345 345 344 345 346 345 345 345 345 346 347 348 349 349 349 349 350 351 350 350
Wind_Speed
3 3 4 4 5 3 2 3 1 1 0 4 2 1 2 1 1 1 4 4 3 6 4 8 16 10 3 2 4 5 5 2 1 2 3 9 18 19 15 16 16 16 18 18 18 16 15 14 13 12 12 11 10 9 9 9 9 8 8 8 9 10 10 9 10 10 9 10 11 11 10 11 12 14 13 14 14 15 14 13 13 12 14 14 14 15 14 14 14 14 14 14 13 13 13 14 15
3 3 4 5 5 2 2 2 0 2 2 5 2 2 2 1 0 2 5 2 2 6 7 14 15 5 2 5 6 5 6 4 2 3 9 17 21 18 17 16 15 16 17 17 17 15 15 14 13 13 11 10 10 10 9 8 8 8 8 9 9 10 10 10 10 10 10 10 11 10 10 10 11 13 14 13 13 14 13 13 13 12 13 14 14 14 15 15 14 14 15 14 13 14 14 14 15
2 4 4 4 4 2 1 1 0 2 4 5 3 3 2 1 2 3 3 1 4 8 11 16 11 4 4 7 4 3 4 3 3 10 15 20 19 18 19 16 16 15 16 17 17 16 15 14 13 12 11 10 9 9 10 9 8 8 8 9 9 9 10 10 11 11 10 10 11 10 10 9 10 12 13 13 13 13 13 13 13 12 14 14 14 15 15 16 15 14 14 14 13 14 14 14 14
2 5 6 4 2 1 1 0 1 1 4 4 3 3 3 2 3 3 2 3 8 11 14 15 7 3 2 4 3 3 5 2 7 15 17 19 18 20 19 17 16 15 15 16 17 16 14 14 12 12 12 10 10 10 10 9 9 8 8 9 9 8 9 11 12 12 11 11 11 11 10 9 10 12 12 12 13 14 13 12 13 12 13 14 14 14 15 16 15 15 15 14 14 13 13 13 12
3 5 5 3 0 0 1 1 1 1 4 2 3 3 3 3 3 5 5 6 7 10 14 13 5 4 4 6 4 2 4 3 11 18 19 19 18 19 18 17 16 14 14 15 16 14 13 13 12 12 12 11 10 10 9 9 9 8 8 8 9 9 10 11 12 12 11 11 11 11 10 9 10 11 11 11 12 15 15 12 12 12 12 13 13 14 14 15 15 15 15 14 13 12 12 11 11
4 5 4 1 0 1 1 2 3 3 3 0 3 3 2 3 4 7 7 7 7 9 12 9 6 7 7 7 7 5 3 1 11 18 20 21 19 18 17 16 14 13 14 13 14 12 12 12 12 12 11 11 10 10 9 9 9 9 9 8 9 9 10 10 11 12 11 11 10 11 10 9 10 11 10 11 13 14 15 13 12 12 12 12 13 13 13 13 14 15 14 13 13 11 11 11 11
5 4 2 0 0 1 1 4 4 3 2 1 2 3 3 3 3 7 7 6 8 9 9 8 9 9 6 4 6 7 4 3 13 19 20 20 18 17 16 15 14 13 13 12 12 11 11 12 11 11 10 10 10 10 9 9 9 8 9 8 9 10 10 10 10 11 11 11 10 11 11 9 11 12 11 11 13 14 15 13 12 12 12 12 13 13 13 13 13 14 13 13 13 11 11 11 11
5 3 1 1 0 1 2 4 3 2 2 1 0 2 2 2 3 5 4 4 5 7 9 10 9 6 5 3 5 6 5 7 14 19 19 20 18 17 15 14 14 13 12 12 11 10 10 11 11 11 10 9 9 10 9 9 8 8 8 8 9 10 10 10 10 11 11 11 11 11 10 10 11 12 11 11 13 14 14 13 13 13 13 13 13 13 13 13 13 13 12 12 11 10 11 11 11
6 2 1 0 2 3 3 3 3 2 1 1 1 1 2 1 2 2 4 4 5 8 9 8 4 3 7 8 8 5 5 8 15 18 19 19 17 15 15 14 13 12 12 11 10 10 9 10 11 11 10 9 9 10 11 10 8 7 8 9 9 9 10 10 10 10 11 10 11 10 9 10 12 12 11 11 12 14 14 14 14 13 13 14 13 13 13 14 12 12 11 10 10 10 10 11 11
5 1 0 1 2 4 4 3 3 2 1 2 1 1 1 1 3 3 5 6 6 8 6 5 5 8 10 9 9 5 6 12 16 18 18 18 16 14 14 13 12 10 10 10 10 10 9 10 10 10 10 9 8 8 11 11 9 7 7 8 9 9 10 10 10 10 10 10 10 10 9 10 13 14 12 10 12 13 14 14 14 13 13 13 14 13 13 14 13 11 9 9 10 10 10 10 11
2 1 1 1 2 4 4 3 4 2 2 1 1 1 1 2 6 5 6 7 4 5 6 5 9 13 11 9 8 6 9 13 15 18 18 17 15 14 14 13 11 9 9 9 10 10 9 10 10 11 10 9 8 7 9 10 10 8 7 8 8 10 10 10 10 10 10 10 11 10 9 9 12 15 13 11 12 14 15 15 14 13 13 12 13 13 13 13 12 10 9 9 10 10 9 10 11
1 1 1 2 2 2 3 4 4 4 3 2 3 1 1 4 7 7 7 7 4 5 5 2 9 12 9 8 8 8 10 12 14 17 17 16 15 14 13 12 11 9 8 9 10 11 10 10 10 11 11 10 9 8 8 9 10 8 8 7 8 9 10 9 9 11 11 10 11 10 10 10 11 13 13 12 13 15 17 15 13 13 12 12 12 12 12 12 11 10 9 9 9 9 9 9 10
2 1 1 2 2 2 3 4 3 4 4 2 2 2 2 4 5 9 8 7 5 3 3 4 12 10 7 9 9 10 10 12 14 15 15 15 15 13 12 11 10 9 9 9 9 10 10 10 10 10 10 10 10 10 9 9 9 9 8 7 7 8 9 9 9 10 10 10 11 9 10 11 11 12 13 13 14 17 17 15 13 12 11 11 11 11 11 11 10 9 9 8 8 7 8 8 8
3 1 1 2 2 2 2 3 3 4 4 3 1 2 3 3 6 11 10 8 4 2 4 10 12 7 9 10 9 11 11 13 14 14 14 14 14 13 11 10 9 9 9 9 9 9 9 10 10 9 9 9 10 10 9 9 9 9 9 8 7 9 9 9 9 10 9 9 10 9 9 11 11 11 12 14 15 16 16 15 14 12 11 11 11 11 10 9 9 8 8 8 7 7 7 8 8
3 1 1 2 3 2 1 2 3 3 4 3 1 3 5 6 9 10 8 7 3 5 9 11 8 3 8 8 9 15 13 15 14 13 14 13 13 11 11 10 10 9 9 9 8 8 8 9 9 9 8 8 10 10 9 9 10 10 10 9 8 9 9 8 8 9 9 9 9 9 9 10 11 11 11 12 13 14 15 15 14 11 11 11 11 11 10 9 8 8 8 8 7 7 7 8 8
3 2 1 2 2 2 2 2 2 3 4 3 3 5 6 8 9 7 5 5 7 9 7 7 4 2 7 8 12 18 16 16 14 14 14 13 13 11 11 10 10 10 9 9 8 8 8 8 8 8 8 7 8 9 9 9 11 11 10 11 10 9 9 9 9 8 8 8 8 8 8 10 11 12 12 11 11 11 13 14 13 11 11 11 11 10 10 9 9 9 8 8 7 7 7 8 8
2 2 1 1 2 2 3 4 3 2 4 4 4 4 6 7 6 6 6 7 11 8 4 5 2 3 8 10 16 20 17 17 15 15 14 13 12 10 11 11 11 11 9 9 8 8 8 8 8 8 7 7 7 9 10 10 10 11 11 13 12 11 11 10 10 8 7 8 8 7 8 10 11 11 11 11 11 11 11 12 12 11 11 10 10 10 9 9 9 9 9 8 8 7 7 6 6
1 1 1 1 2 1 1 3 1 1 5 7 5 4 7 8 6 8 8 8 11 7 6 7 5 6 10 14 19 19 16 17 16 15 13 12 11 9 11 12 12 11 10 9 8 8 7 7 8 8 8 8 8 8 10 10 11 11 12 13 13 13 12 10 10 10 8 8 9 8 8 10 11 10 10 10 11 11 11 11 12 11 11 10 10 10 9 9 9 9 8 7 6 6 5 4 4
1 1 0 1 0 2 3 1 1 2 3 7 6 6 8 8 7 9 7 7 10 6 6 8 9 10 13 18 20 17 16 17 15 14 12 11 10 9 9 11 12 11 10 9 7 8 7 7 7 7 8 8 8 8 9 10 11 12 12 12 13 13 12 11 10 10 10 9 9 8 8 9 10 10 9 10 11 11 11 12 12 12 12 11 11 11 10 10 9 8 7 6 5 4 3 3 3
1 1 1 3 2 3 6 4 3 4 3 7 7 7 7 7 8 7 6 8 8 5 6 8 10 13 17 22 20 16 16 15 14 14 11 10 9 8 8 9 11 11 10 8 7 7 8 8 7 8 8 8 7 8 9 9 11 13 13 12 12 12 11 11 10 10 10 9 8 7 8 9 10 10 10 11 12 13 14 14 14 14 14 13 13 12 11 10 9 7 6 5 4 3 2 2 1
1 0 1 3 2 2 6 5 5 4 4 6 6 8 6 7 7 7 9 8 4 7 9 8 11 18 21 23 20 17 16 14 14 12 11 10 8 7 7 8 9 10 9 8 7 7 8 8 7 7 8 8 7 8 9 10 11 13 13 12 12 12 11 11 11 10 9 8 7 8 9 10 10 11 12 13 14 16 17 17 16 16 15 14 13 12 10 8 7 6 4 3 2 2 1 0 1
3 2 2 3 2 1 5 5 6 5 6 7 6 7 6 6 5 9 13 7 2 7 11 8 11 19 23 23 20 17 15 14 13 12 11 9 8 6 6 7 8 9 9 7 8 7 7 8 7 7 7 7 7 9 10 11 11 12 12 12 13 13 12 12 11 10 9 9 9 9 10 10 10 12 14 16 17 17 18 17 17 16 14 13 12 10 8 7 5 4 2 1 1 1 2 3 2
1 2 3 5 3 3 4 5 5 4 6 6 4 3 4 5 3 9 14 8 2 4 10 10 10 16 21 21 19 17 15 14 13 11 11 9 7 6 5 6 7 8 8 8 8 7 7 7 7 7 6 7 8 9 10 11 12 12 12 12 12 13 12 12 11 11 10 10 10 10 10 11 11 14 16 17 18 18 17 16 15 14 13 12 10 8 7 5 4 3 2 1 2 3 4 4 3
1 3 4 5 6 6 5 5 6 4 4 4 1 0 3 4 3 8 12 11 6 3 7 11 10 14 19 18 17 16 14 13 12 11 10 9 6 5 5 5 5 6 7 8 8 7 7 7 7 7 7 7 9 10 11 12 12 12 12 12 12 12 12 11 11 11 11 11 11 11 12 12 13 15 17 17 17 16 15 14 13 13 12 10 8 7 6 4 4 3 3 3 3 4 4 4 3
1 3 4 4 6 6 6 6 6 5 3 4 3 1 2 2 3 6 7 9 9 5 7 11 11 14 17 17 15 14 14 13 12 11 9 9 7 6 6 5 5 7 7 8 8 7 8 7 8 8 8 8 9 11 12 12 13 13 12 12 12 11 11 11 11 10 11 12 11 12 12 13 15 17 18 17 16 15 14 13 12 11 10 8 7 6 5 4 4 4 5 5 5 5 5 4 2
2 4 4 5 6 5 5 6 7 6 3 4 3 1 2 2 3 3 3 7 11 9 10 13 13 15 16 16 14 13 13 13 13 11 9 8 8 7 7 6 6 6 7 7 7 7 8 9 9 9 9 8 10 12 12 12 13 13 12 12 11 11 11 11 11 11 12 12 12 13 13 14 17 18 18 17 15 14 13 12 11 9 8 7 6 5 4 4 4 5 5 7 8 7 7 5 1
8 9 9 8 7 6 6 6 7 6 4 5 3 1 2 0 3 1 2 6 13 13 13 16 15 15 16 15 14 13 12 13 13 12 10 9 8 8 7 7 6 6 7 7 7 7 8 9 10 10 10 10 11 12 13 13 14 13 13 12 12 12 12 12 12 13 13 13 13 13 14 16 18 19 17 16 14 13 12 11 9 8 7 6 5 5 4 4 4 5 6 7 9 9 8 6 4
10 9 9 8 7 7 6 5 6 4 3 6 5 0 0 1 2 2 1 8 15 16 17 18 17 16 16 14 14 14 13 13 13 12 11 9 7 7 7 6 6 7 7 7 7 7 9 10 10 10 11 11 12 13 15 15 15 14 14 13 13 13 13 13 14 14 14 14 14 14 14 17 19 19 17 15 13 12 11 9 8 7 5 5 4 4 3 3 3 5 5 7 10 11 9 6 6
6 3 3 4 4 3 4 4 4 1 1 6 3 2 2 2 2 4 3 12 16 16 17 18 18 17 16 15 14 14 13 13 13 12 11 10 7 6 5 5 5 6 7 7 7 8 9 10 11 11 12 13 14 15 17 17 16 16 15 14 14 14 15 16 16 15 15 14 14 14 15 18 19 18 16 14 13 11 9 8 7 6 4 4 3 3 2 2 3 4 5 7 10 12 9 6 7
4 1 1 2 1 0 3 2 3 1 2 6 2 3 2 2 4 2 8 15 16 16 15 16 17 17 16 15 15 14 14 12 11 11 10 9 7 5 5 5 5 6 7 8 8 9 10 11 11 12 13 14 16 17 18 18 18 17 16 15 16 17 17 17 17 16 15 14 13 14 16 18 18 17 15 14 12 10 9 7 6 5 3 3 2 2 1 1 1 3 4 7 10 12 9 6 5
1 0 0 1 1 2 3 1 1 1 2 6 3 2 1 1 4 3 10 15 16 15 14 14 15 17 17 16 15 15 14 12 11 10 9 8 6 5 5 6 6 7 7 7 8 9 10 11 12 13 15 16 18 19 19 19 18 17 17 18 19 19 19 17 16 15 13 13 13 14 16 17 17 17 15 13 11 9 8 7 5 4 3 2 1 1 1 1 1 2 4 7 10 11 8 5 5
1 1 1 1 1 2 3 0 2 2 1 4 2 1 0 1 3 2 9 13 13 12 13 14 14 16 17 16 16 15 14 13 11 10 8 7 6 5 5 6 6 6 7 7 8 9 10 11 12 14 16 18 19 19 19 19 18 18 19 19 20 19 18 16 15 14 12 12 12 13 16 17 17 16 14 12 10 9 8 7 5 4 3 1 1 1 1 1 1 3 5 7 9 9 6 3 4
1 2 2 2 1 1 3 2 3 1 1 3 2 0 1 1 3 2 8 12 12 11 12 13 14 15 16 15 15 15 15 14 12 11 9 7 6 5 6 6 6 6 7 7 8 9 10 12 14 15 17 19 20 19 19 19 19 19 20 20 19 17 16 15 14 13 12 12 12 13 15 15 15 14 13 11 10 9 8 6 5 4 3 1 1 1 1 1 1 3 5 6 7 8 5 2 2
1 0 1 1 1 1 2 3 4 2 1 2 2 1 2 3 3 2 8 13 12 10 12 13 13 14 15 15 15 15 16 15 13 11 9 8 6 5 6 7 7 7 7 8 7 8 11 13 15 17 19 20 20 20 19 19 19 19 20 19 17 16 15 15 14 13 13 12 12 12 13 14 14 13 12 11 10 9 8 6 5 4 3 2 1 1 2 1 2 3 4 5 5 6 4 1 1
2 1 1 0 0 1 3 3 5 5 1 2 2 1 4 5 2 2 7 12 14 12 12 12 13 13 14 15 14 15 16 16 14 11 9 9 7 6 7 8 8 8 8 8 8 9 11 15 17 19 20 21 20 20 20 19 19 20 20 19 17 15 15 14 13 12 12 13 13 12 11 12 12 11 11 11 10 8 7 5 5 4 2 2 2 1 2 2 2 2 3 3 4 5 4 2 1
4 2 1 1 1 1 3 3 5 7 3 3 4 2 4 5 2 3 5 10 14 13 11 11 12 12 14 14 14 16 17 17 15 12 11 10 9 8 8 9 8 9 9 9 10 11 13 16 19 20 21 20 20 20 20 20 20 20 20 18 16 15 14 14 13 12 12 12 13 12 11 11 12 11 11 11 9 8 6 5 5 4 3 2 2 1 1 2 2 1 2 3 3 4 4 3 3
2 1 0 0 1 0 2 3 5 7 4 3 4 3 4 5 3 3 2 6 12 13 12 12 13 13 14 15 16 17 18 18 16 14 13 11 11 10 9 9 9 10 10 10 11 12 14 18 20 21 21 20 20 20 20 20 20 20 19 18 15 14 13 13 12 12 12 12 13 13 11 11 11 10 10 10 9 8 6 5 6 5 3 2 1 1 1 1 1 1 2 3 3 3 4 4 4
1 1 1 2 2 1 2 1 4 7 4 3 3 5 7 6 5 3 2 4 10 14 15 15 15 15 16 17 17 18 19 20 18 16 15 14 14 13 11 10 10 11 11 12 12 13 16 18 21 22 20 19 20 20 20 20 19 19 17 16 15 13 12 11 11 11 11 12 12 12 12 12 11 10 10 10 9 8 6 6 6 5 3 2 2 1 1 1 1 2 3 3 3 3 4 5 5
1 1 2 2 2 3 3 2 4 5 4 2 2 6 8 7 5 4 4 5 6 10 15 16 15 15 16 17 17 18 20 21 19 17 17 17 16 15 13 12 12 12 12 13 13 14 17 19 21 21 20 19 19 20 19 18 17 16 14 14 13 11 10 10 10 10 10 11 11 12 11 11 10 9 10 10 9 8 7 7 7 6 4 3 2 2 2 2 2 3 3 3 3 3 4 5 5
3 3 3 2 4 4 1 2 4 3 0 1 1 4 6 5 4 4 6 6 4 6 12 17 18 19 19 18 18 20 21 22 20 18 19 19 18 17 16 14 13 13 14 14 15 16 18 20 21 21 20 19 19 19 18 17 16 16 14 13 13 11 10 10 10 10 9 9 10 10 10 9 9 9 9 9 9 8 7 7 8 7 5 4 3 3 3 3 3 3 3 4 3 3 3 4 5
4 6 7 3 6 4 1 5 6 3 1 1 0 3 4 4 5 5 4 4 5 5 7 12 17 21 22 20 19 21 22 22 22 20 20 20 20 19 18 16 15 14 15 16 16 16 18 20 21 21 20 20 20 19 18 17 17 16 16 15 13 12 11 10 10 10 8 8 8 7 8 8 9 9 9 9 9 9 8 8 8 8 7 6 5 4 4 4 4 3 3 3 3 3 3 4 5
3 6 8 5 7 6 7 10 8 3 3 0 2 3 1 1 4 4 2 2 6 6 7 10 12 15 20 21 19 20 22 23 23 23 21 21 22 21 19 18 17 16 16 16 17 17 17 19 20 21 21 21 20 19 18 18 18 17 17 16 15 13 12 11 10 9 7 5 5 6 7 7 8 9 9 9 9 9 8 8 7 8 8 8 7 6 5 5 5 5 4 4 4 4 3 3 4
2 1 4 5 9 10 12 11 5 1 1 2 1 3 1 1 1 0 1 3 6 6 8 11 11 13 16 20 21 21 23 23 24 24 23 23 24 23 21 20 19 17 16 16 18 18 17 18 20 20 21 21 21 20 19 19 19 18 17 16 15 13 12 11 9 8 6 5 4 5 6 7 8 9 9 9 9 9 8 7 7 8 8 9 8 8 7 6 6 6 6 6 6 5 5 4 4
1 4 1 8 11 11 12 9 3 2 2 3 1 1 3 2 1 1 2 3 6 8 9 11 12 14 15 19 23 24 24 24 25 26 26 25 25 23 21 21 20 18 17 16 18 19 19 18 19 20 20 20 21 20 19 20 20 19 17 16 15 13 11 10 8 8 7 6 5 5 5 7 8 9 9 10 10 9 8 8 8 8 9 9 9 8 8 7 7 7 7 7 6 6 6 5 5
2 2 4 8 8 9 9 6 3 3 2 2 2 2 3 3 1 2 1 3 6 9 11 12 14 16 16 21 24 24 25 26 26 28 27 26 25 23 21 20 20 20 18 17 17 19 20 19 19 19 20 20 21 21 20 21 20 19 18 17 15 13 12 10 8 8 7 7 6 6 6 7 8 9 9 10 10 10 9 9 9 9 9 9 9 9 8 8 7 7 7 7 7 7 7 6 6
3 7 10 9 7 7 5 2 4 2 2 0 3 4 3 2 0 1 1 2 4 6 7 10 13 15 17 22 24 23 25 27 28 29 28 27 25 23 21 20 20 21 20 18 17 19 20 20 20 20 20 20 21 21 21 21 21 20 19 18 16 14 12 10 9 8 7 7 7 7 7 8 9 9 10 10 10 10 10 10 10 10 10 10 9 9 9 8 8 8 8 7 7 7 7 7 7
11 10 11 9 7 5 3 2 2 1 2 1 1 3 3 2 0 1 1 0 1 3 4 5 9 13 16 19 22 23 26 28 29 30 30 29 27 24 23 22 21 21 22 20 19 19 20 21 20 20 20 20 21 22 21 21 22 22 21 19 17 15 13 11 10 9 8 8 8 8 8 9 9 9 10 10 10 10 11 10 10 10 10 10 10 9 9 9 9 9 8 8 8 7 7 7 8
6 5 7 6 4 2 2 2 0 3 2 2 1 3 4 3 1 2 2 1 2 4 5 6 7 10 14 17 21 23 25 28 30 31 31 31 29 28 26 25 23 22 23 23 22 20 20 21 21 20 20 21 21 22 22 22 22 23 22 21 19 16 14 11 10 10 9 8 8 8 9 10 10 10 10 10 10 10 10 10 10 10 10 10 10 9 9 9 9 9 9 8 8 8 8 7 8
2 4 5 3 2 2 2 1 2 3 1 2 1 3 3 4 3 2 2 2 2 4 5 7 9 9 10 13 18 21 23 25 28 31 32 32 32 31 29 27 25 24 24 24 24 22 21 21 21 21 20 20 21 22 23 23 23 22 22 22 20 18 15 12 11 11 10 9 9 9 10 10 10 10 10 10 9 9 10 10 10 10 10 10 10 10 9 9 9 10 9 9 9 9 9 8 7
5 5 3 2 2 2 2 2 1 3 0 2 1 3 2 3 2 1 2 2 4 5 5 7 9 11 11 10 12 16 21 24 26 29 32 32 34 33 32 30 27 25 24 25 25 24 23 21 21 22 21 19 20 21 22 23 23 21 21 21 21 18 15 13 13 12 10 10 9 10 10 10 10 10 9 9 9 9 10 10 10 10 10 10 10 10 10 10 10 10 10 10 10 10 10 9 9
4 1 0 2 3 2 2 2 2 1 2 3 2 3 2 2 0 1 1 2 3 3 4 6 6 7 9 8 9 11 16 21 23 27 30 32 33 33 33 32 29 26 25 25 26 26 25 22 21 22 21 21 20 20 21 22 22 21 20 20 20 19 17 15 15 13 12 11 10 11 11 11 10 9 8 8 9 10 10 10 10 10 10 11 11 10 10 10 9 10 10 10 10 11 11 11 11
2 0 1 2 1 1 0 0 0 1 1 2 2 2 2 1 1 1 2 1 2 3 4 4 4 4 4 4 6 8 12 16 20 24 28 30 32 32 33 33 31 28 26 26 26 26 26 24 22 21 21 22 21 21 20 20 20 20 19 19 19 19 18 18 17 15 13 12 12 12 12 12 11 10 9 8 9 10 11 11 11 11 11 11 11 11 10 10 9 9 10 10 10 10 11 12 12
3 2 3 1 1 1 3 1 1 0 2 1 1 3 2 1 2 2 2 3 3 3 3 3 5 5 4 3 3 5 8 12 17 22 27 29 29 30 31 31 30 28 27 27 27 26 25 25 23 22 21 22 22 22 21 20 20 19 19 18 18 19 20 20 19 18 15 14 14 13 13 13 12 11 10 9 10 10 11 12 12 12 12 11 11 10 10 9 9 9 10 10 10 11 12 12 12
2 3 4 4 1 1 1 1 1 1 3 1 1 4 3 2 2 1 3 4 3 2 2 2 3 4 4 4 4 3 5 8 13 18 24 27 26 27 29 30 31 29 26 26 27 27 27 26 25 23 22 22 22 22 22 21 20 20 19 19 19 20 21 21 20 19 18 16 15 15 14 14 13 12 11 10 11 11 11 12 13 13 12 12 11 10 10 9 9 10 11 11 11 11 12 12 12
2 4 6 3 1 1 1 1 1 1 2 1 1 3 3 4 3 1 4 6 4 2 1 1 2 3 4 4 4 3 3 5 8 13 18 23 24 26 28 30 30 28 25 25 26 27 29 29 28 26 23 21 21 21 23 23 21 20 20 20 20 20 21 21 21 20 19 18 17 16 15 14 13 13 12 12 12 12 12 13 13 13 13 12 12 12 12 11 11 12 12 12 12 12 13 13 13
5 5 5 1 1 1 1 0 0 1 1 1 1 2 2 3 2 2 5 7 5 3 1 1 2 3 3 3 4 4 3 3 5 9 14 19 23 25 27 28 28 25 24 26 27 27 28 29 30 29 26 24 23 22 23 23 23 22 21 21 21 22 21 21 21 20 20 19 18 17 16 15 14 14 13 13 13 13 14 13 13 13 13 13 13 13 14 13 14 14 13 13 13 13 13 14 14
3 4 4 1 2 1 0 1 1 1 1 1 2 2 2 1 1 3 5 6 5 3 1 1 2 2 3 4 5 5 4 3 4 7 12 15 19 22 24 25 27 25 25 28 30 30 29 29 30 29 28 27 26 25 24 23 23 24 23 21 22 23 22 22 21 20 20 19 18 18 17 16 15 15 15 14 14 14 14 14 14 14 14 14 14 14 15 15 16 16 15 14 14 14 14 15 15
1 3 3 3 4 2 2 1 0 1 1 1 1 3 2 2 1 3 2 3 3 1 1 1 2 3 3 4 5 5 5 4 5 6 10 13 15 18 20 23 25 27 28 29 31 31 31 31 29 28 28 27 26 27 26 24 23 24 23 22 22 23 23 23 22 22 21 20 19 18 17 17 16 16 16 16 15 14 14 14 14 14 14 14 14 14 15 16 17 16 16 15 15 15 15 16 16
Wind_Direction
67 34 15 6 5 353 347 300 219 79 267 88 65 77 89 19 334 135 131 132 129 156 166 138 144 147 159 161 134 89 50 90 41 344 87 126 141 142 146 150 148 150 148 142 144 143 141 139 137 138 139 143 143 140 135 128 127 133 133 125 116 112 109 110 111 110 113 110 107 109 108 109 112 113 112 110 110 111 112 112 114 115 113 111 114 115 115 113 111 112 112 109 105 106 106 105 104
48 17 358 1 2 347 346 309 355 92 115 96 67 22 49 304 186 118 131 127 99 149 151 139 141 134 129 122 117 98 69 50 19 85 115 136 141 141 147 146 146 149 148 142 140 143 141 139 140 140 140 144 142 139 134 128 127 131 130 123 117 115 116 114 112 110 110 108 107 108 110 113 113 114 114 111 111 114 115 114 113 115 114 113 116 116 116 114 112 112 111 108 106 106 107 105 103
36 17 354 355 359 349 298 302 102 120 107 99 90 17 357 33 64 91 126 54 110 140 139 139 139 99 113 119 103 50 70 46 93 120 129 140 143 144 145 144 146 147 146 141 138 141 141 141 142 138 140 144 140 137 136 133 130 133 132 124 120 121 122 119 116 115 111 107 107 106 110 114 112 113 115 115 115 116 115 113 114 115 116 117 119 118 118 118 117 116 112 110 110 108 108 107 103
352 7 3 359 340 304 280 321 81 119 105 106 108 45 8 35 51 72 99 104 126 139 141 146 135 79 93 93 66 44 78 79 134 135 139 144 148 147 145 145 146 145 145 139 137 140 140 141 141 137 138 140 137 137 136 135 134 136 136 131 129 131 130 126 123 120 115 110 106 105 109 113 112 112 116 117 117 117 115 113 115 115 116 119 120 120 120 119 121 119 117 116 114 112 109 105 101
347 356 4 12 269 331 293 109 55 79 101 110 115 78 26 53 75 91 106 109 125 145 148 152 131 89 81 60 37 53 77 89 149 145 144 148 150 149 145 146 146 145 144 138 138 139 137 138 139 133 130 133 136 136 133 135 139 140 138 136 135 135 134 130 126 121 117 111 105 105 108 112 110 112 119 119 117 117 117 117 116 116 116 116 115 116 118 121 123 121 120 119 114 112 108 104 100
357 357 2 12 302 334 246 119 93 83 85 278 106 88 59 84 94 103 109 97 110 141 148 149 133 118 94 62 50 59 59 98 160 152 147 149 151 150 146 146 148 147 144 140 138 136 137 137 135 130 129 133 133 133 134 137 143 145 141 137 135 132 134 131 125 121 117 111 108 107 107 112 111 112 120 122 119 118 117 119 117 115 116 115 114 115 120 123 121 120 120 117 112 112 110 105 103
358 359 350 219 278 332 109 101 102 91 95 256 74 88 81 74 108 119 116 105 113 132 148 144 134 121 93 84 68 49 46 129 161 155 149 149 151 152 147 148 150 148 145 143 138 136 139 136 133 128 130 132 129 133 137 139 140 140 139 140 136 130 134 132 126 121 115 111 108 108 111 116 114 114 120 121 121 119 117 120 121 119 121 121 121 121 123 122 119 120 119 115 113 114 113 108 106
352 350 270 228 106 90 87 92 96 84 107 226 6 84 55 52 137 137 116 112 124 136 145 142 141 119 75 93 84 52 69 125 159 154 149 149 151 153 149 151 152 152 150 147 141 138 140 137 134 128 129 131 132 139 139 136 131 129 135 144 138 133 135 132 129 123 115 114 109 107 115 120 117 115 118 119 120 118 118 120 121 123 126 125 125 124 122 122 122 121 119 116 116 117 115 112 109
350 352 257 205 109 102 95 91 99 88 90 147 129 96 6 66 162 146 112 102 123 136 139 147 164 131 99 93 89 76 85 129 154 150 149 150 152 154 150 152 155 156 154 153 146 142 147 142 136 132 136 136 136 142 138 131 127 126 132 139 138 136 135 132 133 125 118 115 108 107 117 118 115 117 115 117 122 120 119 119 120 123 126 125 125 126 124 126 128 124 120 120 121 120 118 116 112
353 15 322 184 125 118 116 103 110 107 87 99 90 90 3 116 129 114 118 112 124 134 128 126 124 122 117 96 87 88 108 136 152 149 150 151 153 152 147 149 155 160 160 160 154 148 151 148 140 141 145 141 140 144 139 134 131 128 130 138 139 136 136 140 138 126 121 115 107 109 117 114 112 117 116 117 124 122 121 121 122 123 124 125 128 130 131 134 135 131 128 129 127 123 121 119 115
357 14 329 162 126 131 126 115 120 111 116 122 100 81 355 121 124 106 111 115 113 123 121 113 116 119 112 91 92 110 124 141 153 149 150 152 153 151 146 148 152 161 166 166 163 155 151 152 150 152 154 145 144 146 141 137 133 133 139 144 143 139 140 147 142 128 125 118 113 115 119 115 110 114 117 120 122 122 126 128 126 125 126 128 131 134 136 138 139 137 136 135 128 122 119 115 115
10 357 331 131 99 122 128 124 123 121 138 139 119 56 12 139 139 127 123 122 117 119 117 122 133 126 103 96 112 128 132 143 156 151 149 151 152 152 150 150 153 160 168 170 169 164 159 159 158 158 158 150 147 149 146 138 136 144 147 146 148 144 142 148 144 132 129 124 121 122 122 116 111 113 118 122 122 123 129 135 133 127 130 135 137 139 141 143 144 144 143 137 127 121 118 114 113
14 357 38 95 72 113 128 127 120 135 144 133 117 26 71 142 145 138 130 118 120 110 74 128 139 123 94 111 125 138 142 150 158 152 148 151 152 153 152 154 157 163 172 172 172 170 167 165 164 163 162 155 150 153 152 143 142 148 145 144 147 143 143 149 146 135 131 128 123 123 120 114 111 113 117 121 121 123 128 136 138 134 135 139 140 139 141 145 148 148 144 136 127 122 121 117 116
22 11 47 102 120 120 123 128 140 162 140 124 120 30 87 114 134 140 135 123 107 66 104 137 137 110 113 126 139 151 153 157 158 152 150 152 150 152 154 161 164 169 177 176 177 176 172 171 170 169 171 162 150 152 154 149 147 148 146 146 149 146 147 152 149 141 137 133 126 125 121 114 112 114 120 123 122 123 126 131 134 138 141 139 139 139 143 148 150 147 142 137 131 126 121 117 114
33 40 58 114 129 125 165 138 145 170 137 126 109 86 92 99 126 135 132 124 96 112 126 139 129 94 150 154 159 160 158 158 158 153 153 152 151 155 159 166 170 175 182 181 184 182 177 176 173 172 178 168 151 148 150 151 150 148 148 148 152 152 149 151 152 151 148 135 123 121 119 116 116 117 119 122 122 123 126 128 132 141 144 142 142 142 145 147 147 144 140 139 135 129 120 113 111
36 39 61 117 137 150 181 154 153 169 136 133 122 114 102 101 119 119 117 115 119 129 125 140 111 27 164 158 154 156 156 156 156 155 155 154 156 160 163 170 174 182 192 189 189 187 182 178 176 179 178 168 152 148 152 159 156 152 152 152 155 156 153 156 158 160 153 134 118 119 124 123 120 121 120 122 125 124 126 130 137 143 144 145 146 145 145 142 140 139 136 136 132 124 114 108 106
33 32 56 102 150 170 170 167 170 146 128 140 153 145 121 113 109 104 115 118 129 130 100 133 69 44 150 153 151 150 152 155 155 157 156 155 157 159 167 174 180 189 199 195 193 190 185 177 179 184 177 167 160 155 159 163 159 155 158 159 157 157 158 160 162 163 155 135 124 125 131 129 125 125 125 125 127 128 131 135 141 144 147 149 147 144 141 134 131 129 128 126 122 115 108 103 97
37 29 85 115 170 165 153 181 167 105 147 148 156 162 137 126 116 117 119 117 129 119 86 111 82 97 145 154 153 148 151 157 157 160 157 158 161 161 169 177 184 193 200 198 196 190 185 180 182 184 173 167 165 162 161 161 158 158 161 161 158 159 161 164 166 163 158 142 129 130 135 133 129 125 126 129 129 132 137 141 143 144 146 145 141 137 134 130 128 126 124 123 122 118 114 105 91
73 19 76 70 170 90 48 42 37 9 147 137 134 148 141 128 129 140 136 133 143 128 101 112 101 112 141 154 155 150 154 159 161 167 166 166 168 167 173 179 187 194 199 203 199 190 187 186 183 175 167 163 161 163 162 161 160 158 162 160 158 161 161 164 167 164 159 144 130 134 139 137 132 126 129 134 131 131 135 136 135 134 133 130 129 128 127 128 127 127 128 130 134 137 133 117 96
57 354 75 42 12 83 56 51 54 16 109 130 128 133 130 124 138 157 149 147 167 169 141 135 128 130 145 156 159 155 159 165 167 174 177 174 173 176 179 184 193 197 199 205 204 198 189 186 183 169 163 159 158 159 158 162 162 158 161 159 155 158 160 163 165 166 159 143 135 142 146 144 138 131 131 132 128 128 129 126 124 122 121 120 121 120 120 122 124 128 131 138 146 150 150 136 100
118 337 7 24 329 95 63 62 73 56 117 128 127 131 127 124 143 164 151 148 189 208 185 163 154 152 153 161 164 161 164 169 171 178 183 180 176 178 186 192 201 202 200 205 208 207 193 185 184 174 167 161 158 158 157 162 161 156 159 156 151 156 160 162 161 161 154 146 149 155 153 147 136 129 129 129 126 126 124 122 120 119 118 118 119 119 121 124 129 135 141 155 164 169 191 269 8
133 101 16 9 308 90 67 75 80 80 117 127 134 132 132 128 141 169 167 164 180 207 202 183 165 163 162 165 167 168 170 172 175 180 183 184 180 180 189 191 199 203 200 206 209 207 199 191 186 180 175 163 155 158 162 162 157 154 156 154 151 153 157 157 155 155 155 158 162 160 155 143 132 130 130 128 126 124 122 120 119 119 119 120 122 124 127 131 135 142 152 184 237 262 276 298 327
152 94 56 31 30 49 60 78 79 76 110 122 135 118 136 146 143 176 186 201 175 196 203 186 170 168 168 168 168 172 176 179 181 181 183 186 185 189 193 188 195 198 197 204 205 200 198 199 191 182 173 161 153 157 161 159 155 156 157 153 150 150 152 152 150 154 160 165 163 157 151 140 134 134 132 129 127 125 122 120 119 119 121 123 125 125 126 124 122 116 99 42 323 305 292 299 315
336 75 73 45 47 49 56 84 83 70 78 68 24 156 163 166 151 176 198 215 208 202 193 183 174 169 172 172 170 174 180 186 187 183 186 191 196 205 206 202 194 189 196 199 193 191 195 201 199 188 177 166 158 157 157 155 155 155 154 151 150 152 152 151 149 154 162 163 159 154 147 139 137 137 134 132 129 126 123 122 121 121 121 121 122 120 115 109 101 89 72 45 7 346 333 324 317
53 79 86 65 60 59 65 84 82 68 44 15 342 229 156 156 162 179 207 216 206 198 181 180 177 171 174 176 176 179 185 191 193 187 188 196 202 206 208 207 197 187 191 192 185 186 191 196 200 193 185 174 162 160 156 153 152 149 148 148 153 155 154 153 151 152 158 159 155 150 144 139 140 140 139 137 133 130 128 126 124 122 120 118 117 113 109 103 92 80 61 46 37 26 17 359 318
92 93 101 94 82 72 67 74 73 73 44 359 338 165 112 118 176 193 254 221 200 190 182 181 179 175 175 180 182 182 188 196 199 194 187 194 199 203 205 200 200 192 186 188 183 184 188 190 192 187 183 173 161 160 156 151 150 146 146 150 156 158 158 158 154 153 156 155 151 148 144 143 144 144 144 142 139 136 133 129 126 124 118 116 115 110 105 94 83 68 49 47 47 40 34 25 53
107 104 97 91 88 71 54 59 60 72 67 22 2 158 84 98 196 205 324 201 186 176 177 181 180 180 178 182 187 188 195 201 205 202 191 191 196 200 200 196 197 190 186 189 183 185 188 185 182 178 175 166 158 159 156 151 150 150 151 154 156 157 160 160 155 155 155 152 149 146 145 146 148 148 148 146 144 142 137 132 129 124 119 117 117 111 98 80 71 52 42 52 47 38 34 34 82
116 115 95 79 88 75 45 44 46 61 78 28 14 269 52 142 198 329 38 168 174 171 173 177 179 183 182 184 194 196 201 208 212 213 210 209 209 206 204 201 195 187 188 189 185 185 184 180 177 172 166 160 156 156 154 151 150 152 152 151 151 153 156 156 155 156 154 151 149 148 149 151 151 152 152 151 150 146 141 138 133 127 124 123 121 108 89 72 56 38 40 51 43 37 39 51 89
116 132 104 83 104 85 30 20 21 29 82 25 13 205 166 114 10 336 170 162 168 169 168 172 178 184 186 189 199 204 205 213 218 220 224 229 230 223 210 202 200 194 187 185 186 185 180 176 174 169 161 156 154 154 153 151 151 151 149 148 147 147 149 149 152 154 152 151 151 152 153 154 154 155 156 156 155 152 149 145 139 134 130 125 121 105 83 64 42 28 34 46 42 39 47 69 91
111 84 76 102 146 91 24 3 347 355 29 14 343 212 159 88 16 24 170 166 165 163 163 172 178 184 191 194 203 210 210 214 222 226 230 234 237 230 212 199 193 193 189 183 183 183 179 172 169 166 160 155 153 154 154 151 151 149 146 144 142 142 143 144 147 150 151 152 154 155 156 157 157 158 160 161 161 160 157 154 149 144 138 128 127 119 93 68 30 14 27 43 42 41 53 76 93
119 151 165 111 332 15 30 330 228 127 358 359 339 238 151 93 35 98 173 173 167 162 165 176 179 185 194 200 206 213 215 217 225 232 237 241 242 232 217 199 183 187 189 182 178 181 179 169 165 164 159 155 155 156 154 152 150 148 145 143 141 140 141 143 146 148 150 152 154 155 156 158 159 162 166 168 169 169 167 163 161 160 155 143 139 154 148 115 30 7 26 39 37 37 49 74 99
58 280 264 36 8 64 54 100 176 148 9 4 347 247 152 84 44 114 179 178 175 169 168 179 183 188 197 204 211 216 219 223 226 231 239 245 243 232 221 204 185 182 184 180 178 180 177 166 160 162 160 157 158 158 155 152 150 149 147 144 142 141 142 144 145 146 146 148 151 155 156 158 161 166 172 175 177 178 175 169 170 175 173 169 157 157 153 133 36 17 26 28 26 29 42 77 100
85 309 316 8 20 122 89 109 179 185 43 39 9 321 126 19 28 120 183 185 186 178 173 183 188 192 200 206 214 219 222 228 230 229 232 236 238 229 219 207 187 177 179 180 181 180 174 163 159 161 161 159 160 158 155 153 153 151 150 148 145 144 145 146 145 145 143 143 148 154 158 161 164 170 176 180 182 184 180 174 176 178 176 185 177 140 121 105 45 30 26 22 18 22 40 100 102
118 134 306 344 350 8 98 128 171 198 336 76 44 35 216 290 359 130 188 190 192 190 183 188 191 196 204 209 215 221 225 230 233 231 227 226 227 222 217 207 186 176 177 177 181 181 171 162 160 162 162 162 161 159 156 156 155 155 155 152 150 149 149 148 146 146 145 144 147 155 162 166 169 174 179 182 185 185 180 177 178 175 174 182 167 128 106 90 57 41 25 18 13 15 30 102 135
34 12 337 316 349 59 123 132 155 169 175 150 130 91 223 257 329 141 188 194 198 201 194 192 196 200 206 211 217 223 228 232 236 236 227 221 219 216 213 204 185 175 178 175 177 181 172 164 162 163 164 164 163 160 159 159 159 160 160 157 155 154 153 152 149 149 151 151 150 154 164 172 176 180 185 186 186 182 175 176 179 179 188 182 157 118 107 97 72 42 16 9 9 11 17 18 325
27 41 8 340 4 72 123 122 153 172 173 179 188 204 217 231 229 167 177 192 201 206 201 198 201 204 209 214 218 223 230 233 237 239 229 219 216 214 209 202 186 177 180 176 175 179 174 167 165 165 165 166 164 164 164 164 165 165 164 162 159 157 157 157 157 156 158 160 158 156 162 174 181 186 190 190 187 182 178 181 186 191 200 181 153 126 117 108 79 22 350 351 358 4 2 352 336
38 74 83 278 255 82 120 122 161 182 191 192 204 236 231 232 224 200 174 188 202 206 206 206 206 207 211 215 218 222 230 234 237 237 228 217 214 213 208 201 188 180 183 180 177 179 175 171 169 168 168 169 169 169 170 170 171 171 169 168 164 163 162 162 165 165 166 169 168 164 166 174 180 186 193 194 192 189 189 192 194 198 197 181 171 173 156 121 51 335 319 324 335 347 345 337 332
309 300 269 230 231 104 79 100 160 186 214 194 194 241 236 235 231 217 204 197 205 208 210 212 210 210 214 217 219 222 228 234 237 234 222 213 212 211 206 200 194 188 186 184 181 179 178 175 173 172 173 174 175 176 176 176 177 176 174 173 171 171 170 169 170 169 170 172 173 173 173 176 178 183 193 197 197 197 199 203 200 199 200 196 209 220 247 286 314 313 310 314 318 326 331 329 329
229 254 242 242 174 123 83 79 148 182 233 205 176 241 241 237 235 228 224 219 218 216 217 219 215 212 216 218 219 221 225 229 232 229 218 211 210 210 206 201 199 196 192 187 183 181 181 180 178 177 178 179 181 181 181 181 182 182 179 176 175 177 177 172 170 169 169 171 174 177 179 180 180 185 194 199 202 203 208 211 206 207 211 212 225 236 255 282 304 309 309 312 317 332 336 329 329
206 205 243 251 160 174 125 126 160 155 354 33 145 247 258 246 230 228 229 233 247 232 221 223 224 223 224 221 221 223 224 225 226 222 217 214 210 208 206 203 200 200 198 191 187 186 185 185 184 183 183 184 186 187 187 187 187 188 185 178 177 180 178 172 170 168 168 170 174 178 182 183 184 189 196 201 205 209 213 214 213 216 220 222 230 240 255 273 288 301 309 312 315 342 347 330 323
213 207 234 236 170 188 63 132 154 140 111 26 339 248 256 247 236 224 213 233 247 238 221 221 224 228 228 224 224 226 225 227 225 217 215 218 216 209 205 204 202 202 202 197 192 192 190 190 190 188 188 188 190 193 194 193 192 191 186 181 182 184 183 181 178 176 175 175 175 178 185 186 188 193 197 203 208 214 217 218 219 222 228 231 231 239 252 264 275 285 300 317 318 321 326 327 326
244 208 230 228 165 145 118 141 150 157 189 98 323 266 204 173 241 228 165 217 230 222 221 224 219 220 223 222 223 225 225 228 227 216 212 218 218 213 208 205 205 205 206 203 198 197 194 194 195 195 193 192 193 196 198 197 193 191 188 186 187 189 192 192 188 187 188 185 180 185 194 195 196 198 201 205 209 216 220 220 221 225 232 236 234 239 251 264 274 279 290 307 314 311 303 310 322
299 324 234 182 146 134 136 156 167 155 142 70 320 276 316 94 176 227 346 253 234 227 227 228 221 214 215 216 218 222 223 224 225 219 215 217 217 215 211 207 208 208 208 207 203 200 198 198 199 200 200 197 196 197 199 198 195 193 192 191 192 195 199 199 197 200 204 203 198 198 206 207 207 209 210 212 214 219 222 222 225 229 234 238 240 243 252 265 272 275 283 294 300 304 300 295 302
342 7 175 148 141 143 148 161 159 99 108 92 129 259 302 293 110 73 316 264 238 236 233 227 222 218 213 214 216 219 221 223 224 223 220 219 219 218 215 213 210 209 210 209 206 204 200 199 201 203 205 203 200 199 200 200 199 198 198 197 198 200 203 206 207 212 215 217 216 213 217 216 216 218 220 221 222 225 228 227 232 238 240 242 245 249 255 262 269 273 279 288 293 295 294 292 295
350 34 115 129 132 138 146 148 110 111 175 146 143 192 267 279 133 128 235 251 241 235 232 228 221 216 214 217 218 218 222 226 228 228 225 223 223 222 222 220 214 211 213 211 208 208 204 202 203 204 207 207 204 203 203 204 204 203 203 202 202 205 207 208 209 216 221 227 230 229 228 224 222 224 227 229 229 231 233 233 240 247 250 252 253 254 257 260 267 271 275 284 291 292 291 292 296
125 121 104 104 106 107 113 118 106 130 249 242 149 201 257 291 188 137 168 234 254 249 239 234 228 221 217 218 218 217 221 226 228 228 228 227 227 228 229 227 221 215 215 215 212 211 208 205 205 206 209 210 208 206 207 208 207 206 207 208 207 210 212 211 214 221 229 237 240 239 236 231 226 227 230 231 232 233 235 237 244 251 255 256 257 257 259 263 268 268 269 278 286 291 291 290 295
139 126 105 102 101 100 85 53 82 197 234 83 107 227 260 298 241 176 217 174 288 296 289 262 241 232 226 221 220 218 220 224 225 225 227 228 229 230 231 230 226 220 218 217 214 213 211 209 208 209 210 212 211 209 209 209 209 209 211 212 212 215 217 218 225 232 239 245 244 244 242 235 230 229 229 229 231 233 236 240 245 250 253 255 257 260 262 265 267 265 265 272 280 287 289 290 291
142 134 123 115 92 106 115 84 219 238 203 83 3 243 229 258 245 164 208 247 272 277 293 297 276 250 237 229 224 221 221 223 224 223 223 225 226 226 228 231 230 225 221 219 217 214 213 212 211 210 210 211 212 211 211 210 212 214 216 217 218 220 222 227 236 240 246 252 248 246 246 239 234 232 229 228 230 233 237 242 245 247 250 253 256 260 262 263 262 262 263 267 274 279 283 290 291
187 157 149 137 94 151 177 155 226 240 221 58 320 234 220 255 262 215 229 286 305 284 287 291 290 280 260 242 232 226 223 223 223 224 222 222 224 224 226 229 230 229 225 222 220 217 215 215 214 212 210 210 211 213 213 213 216 219 220 221 221 224 227 232 240 242 245 249 246 245 245 241 237 235 233 232 233 238 242 244 247 249 250 252 253 256 260 258 257 258 260 263 267 269 273 283 288
190 169 164 169 138 181 192 157 256 262 216 75 179 231 247 262 264 249 261 323 329 309 309 300 289 280 272 261 244 230 224 222 222 224 224 223 224 225 226 229 232 233 230 225 223 221 218 216 216 215 214 211 210 213 216 217 219 222 224 224 223 226 230 234 240 241 241 243 241 241 242 241 240 239 238 237 237 240 243 245 247 250 251 252 252 254 256 256 255 256 258 260 261 262 264 270 277
187 127 308 199 165 221 233 196 233 246 107 99 156 217 250 261 83 57 311 339 344 334 340 330 311 290 276 263 249 234 225 222 221 225 226 226 227 226 227 230 232 234 234 229 226 224 222 220 218 218 217 214 211 212 216 219 220 221 223 224 226 229 232 236 239 239 238 238 237 238 240 240 241 240 237 239 239 239 242 245 246 248 250 250 251 252 254 254 254 255 257 258 258 259 262 266 272
139 81 247 255 179 162 80 29 8 49 142 153 179 233 264 279 251 253 255 181 75 35 18 3 357 350 320 274 249 239 229 222 220 223 227 229 229 227 227 230 232 234 235 233 229 228 226 225 223 222 221 220 217 215 217 221 223 224 223 225 229 232 235 238 238 237 237 237 236 237 238 238 239 238 236 238 238 237 239 241 242 244 245 245 247 248 249 251 251 254 257 258 260 263 267 269 272
134 184 186 75 23 125 117 103 59 357 247 187 168 252 256 257 238 205 195 172 118 61 42 35 22 24 24 357 300 263 244 230 224 223 226 229 230 228 228 228 228 229 232 235 235 233 231 230 229 226 224 224 224 222 221 222 226 229 228 228 232 235 236 237 237 236 238 239 237 235 235 235 234 233 235 237 236 235 236 238 239 242 243 244 246 246 246 246 247 251 255 257 261 265 267 269 270
164 183 145 118 90 46 99 146 117 200 255 213 194 273 286 274 259 140 169 201 168 103 69 65 43 40 37 17 354 319 275 249 235 228 227 230 231 228 225 226 227 227 230 236 240 240 237 236 235 232 229 228 228 227 226 225 227 231 233 233 233 234 236 236 235 236 239 241 239 237 235 235 234 234 235 236 234 234 236 238 240 240 242 245 247 244 240 242 246 251 255 258 260 261 265 267 269
38 125 124 134 209 161 113 182 159 212 267 227 189 282 283 242 249 179 184 200 191 169 107 78 64 48 33 15 5 347 312 273 248 232 227 228 230 229 228 229 231 231 232 236 240 242 241 239 237 236 236 235 234 232 231 230 229 231 235 237 236 235 234 235 235 235 238 239 239 239 239 239 238 237 237 237 236 237 240 242 243 242 242 245 248 244 239 243 250 255 259 263 265 266 268 271 271
69 116 121 1 335 95 102 126 237 260 266 270 238 263 249 221 237 227 192 190 190 184 163 54 44 41 24 6 358 345 327 293 258 237 231 228 229 232 233 234 233 231 235 239 239 241 242 240 239 238 238 240 239 237 236 235 233 232 234 236 237 236 234 234 236 237 239 239 240 241 242 244 243 241 240 239 240 242 243 245 245 244 244 245 248 247 244 248 254 258 262 265 270 273 274 275 276
139 163 156 128 96 102 142 112 14 299 202 220 270 273 279 110 184 217 189 180 182 176 171 12 31 36 22 8 358 348 335 303 263 242 236 233 232 235 237 237 234 232 235 238 239 240 240 240 241 240 239 242 243 242 242 240 238 237 235 234 236 235 234 234 235 237 240 241 242 243 243 244 244 244 243 241 243 245 247 247 245 243 244 246 250 250 250 253 256 259 262 266 271 276 277 278 277
176 200 180 155 134 147 189 163 139 308 282 203 256 290 313 70 164 231 182 159 161 175 248 332 35 25 16 14 10 2 346 315 283 256 243 237 236 238 239 239 238 235 235 236 237 237 237 241 244 242 239 241 244 245 245 244 243 242 239 236 236 236 235 234 235 237 239 242 244 244 244 244 244 245 245 244 245 247 249 249 246 245 246 248 251 252 253 255 258 261 264 268 272 276 278 278 275